START_TIME,STEP,MOV.,M35,t_acc.,PL05,t_acc.,PL06,t_acc.,PL07,t_acc.
1979-07-15 18:00:24.110 ,0,1,0.,4.8,13.,4.8,3.,4.8,4.,4.8
1979-07-15 18:00:28.910 ,0,1,1.,4.8,13.,4.8,4.,4.8,8.,4.8
1979-07-15 18:00:33.710 ,0,1,0.,4.8,12.,4.8,5.,4.8,2.,4.8
1979-07-15 18:00:38.510 ,0,1,0.,4.8,8.,4.8,0.,4.8,4.,4.8
1979-07-15 18:00:43.310 ,0,1,0.,4.8,10.,4.8,1.,4.8,4.,4.8
1979-07-15 18:00:48.110 ,4,1,0.,4.8,6.,4.8,2.,4.8,1.,4.8
1979-07-15 18:00:52.910 ,4,1,0.,4.8,10.,4.8,3.,4.8,2.,4.8
1979-07-15 18:00:57.710 ,4,1,0.,4.8,21.,4.8,1.,4.8,5.,4.8
1979-07-15 18:01:02.510 ,4,1,0.,4.8,13.,4.8,6.,4.8,7.,4.8
1979-07-15 18:01:07.310 ,4,1,0.,4.8,7.,4.8,6.,4.8,0.,4.8
1979-07-15 18:01:12.110 ,7,1,0.,4.8,11.,4.8,3.,4.8,4.,4.8
1979-07-15 18:01:16.910 ,7,1,0.,4.8,12.,4.8,3.,4.8,2.,4.8
1979-07-15 18:01:21.710 ,7,1,0.,4.8,7.,4.8,1.,4.8,4.,4.8
1979-07-15 18:01:26.510 ,7,1,0.,4.8,3.,4.8,0.,4.8,2.,4.8
1979-07-15 18:01:31.310 ,7,1,0.,4.8,0.,4.8,0.,4.8,1.,4.8
1979-07-15 18:01:36.110 ,3,1,0.,4.8,2.,4.8,0.,4.8,0.,4.8
1979-07-15 18:01:40.910 ,3,1,0.,4.8,12.,4.8,1.,4.8,3.,4.8
1979-07-15 18:01:45.710 ,3,1,0.,4.8,11.,4.8,5.,4.8,0.,4.8
1979-07-15 18:01:50.510 ,3,1,0.,4.8,7.,4.8,5.,4.8,5.,4.8
1979-07-15 18:01:55.310 ,3,1,0.,4.8,13.,4.8,2.,4.8,4.,4.8
1979-07-15 18:02:00.110 ,0,1,1.,4.8,15.,4.8,2.,4.8,2.,4.8
1979-07-15 18:02:04.910 ,0,1,0.,4.8,15.,4.8,6.,4.8,2.,4.8
1979-07-15 18:02:09.710 ,0,1,0.,4.8,4.,4.8,3.,4.8,3.,4.8
1979-07-15 18:02:14.510 ,0,1,0.,4.8,5.,4.8,3.,4.8,1.,4.8
1979-07-15 18:02:19.310 ,0,1,0.,4.8,9.,4.8,0.,4.8,3.,4.8
1979-07-15 18:02:24.110 ,4,1,0.,4.8,6.,4.8,4.,4.8,1.,4.8
1979-07-15 18:02:28.910 ,4,1,0.,4.8,10.,4.8,7.,4.8,4.,4.8
1979-07-15 18:02:33.710 ,4,1,1.,4.8,12.,4.8,9.,4.8,5.,4.8
1979-07-15 18:02:38.510 ,4,1,0.,4.8,15.,4.8,2.,4.8,4.,4.8
1979-07-15 18:02:43.310 ,4,1,0.,4.8,11.,4.8,3.,4.8,1.,4.8
1979-07-15 18:02:48.110 ,7,1,0.,4.8,8.,4.8,0.,4.8,7.,4.8
1979-07-15 18:02:52.910 ,7,1,0.,4.8,8.,4.8,3.,4.8,3.,4.8
1979-07-15 18:02:57.710 ,7,1,0.,4.8,7.,4.8,3.,4.8,0.,4.8
1979-07-15 18:03:02.510 ,7,1,0.,4.8,3.,4.8,1.,4.8,1.,4.8
1979-07-15 18:03:07.310 ,7,1,0.,4.8,0.,4.8,0.,4.8,0.,4.8
1979-07-15 18:03:12.110 ,3,1,0.,4.8,2.,4.8,0.,4.8,2.,4.8
1979-07-15 18:03:16.910 ,3,1,0.,4.8,9.,4.8,3.,4.8,3.,4.8
1979-07-15 18:03:21.710 ,3,1,0.,4.8,9.,4.8,2.,4.8,3.,4.8
1979-07-15 18:03:26.510 ,3,1,0.,4.8,9.,4.8,4.,4.8,2.,4.8
1979-07-15 18:03:31.310 ,3,1,0.,4.8,5.,4.8,0.,4.8,2.,4.8
1979-07-15 18:03:36.110 ,0,1,1.,4.8,11.,4.8,5.,4.8,7.,4.8
1979-07-15 18:03:40.910 ,0,1,1.,4.8,14.,4.8,13.,4.8,7.,4.8
1979-07-15 18:03:45.710 ,0,1,0.,4.8,15.,4.8,3.,4.8,3.,4.8
1979-07-15 18:03:50.510 ,0,1,0.,4.8,7.,4.8,1.,4.8,2.,4.8
1979-07-15 18:03:55.310 ,0,1,0.,4.8,10.,4.8,1.,4.8,1.,4.8
1979-07-15 18:04:00.110 ,4,1,0.,4.8,7.,4.8,3.,4.8,0.,4.8
1979-07-15 18:04:04.910 ,4,1,0.,4.8,13.,4.8,1.,4.8,4.,4.8
1979-07-15 18:04:09.710 ,4,1,0.,4.8,9.,4.8,6.,4.8,3.,4.8
1979-07-15 18:04:14.510 ,4,1,0.,4.8,10.,4.8,2.,4.8,2.,4.8
1979-07-15 18:04:19.310 ,4,1,0.,4.8,12.,4.8,1.,4.8,8.,4.8
1979-07-15 18:04:24.110 ,7,1,0.,4.8,10.,4.8,3.,4.8,5.,4.8
1979-07-15 18:04:28.910 ,7,1,0.,4.8,12.,4.8,2.,4.8,2.,4.8
1979-07-15 18:04:33.710 ,7,1,0.,4.8,3.,4.8,2.,4.8,5.,4.8
1979-07-15 18:04:38.510 ,7,1,0.,4.8,4.,4.8,0.,4.8,0.,4.8
1979-07-15 18:04:43.310 ,7,1,0.,4.8,0.,4.8,0.,4.8,0.,4.8
1979-07-15 18:04:48.110 ,3,1,0.,4.8,3.,4.8,3.,4.8,1.,4.8
1979-07-15 18:04:52.910 ,3,1,0.,4.8,1.,4.8,2.,4.8,2.,4.8
1979-07-15 18:04:57.710 ,3,1,0.,4.8,6.,4.8,1.,4.8,2.,4.8
1979-07-15 18:05:02.510 ,3,1,0.,4.8,1.,4.8,6.,4.8,4.,4.8
1979-07-15 18:05:07.310 ,3,1,0.,4.8,6.,4.8,1.,4.8,1.,4.8
1979-07-15 18:05:12.110 ,0,1,0.,4.8,14.,4.8,7.,4.8,2.,4.8
1979-07-15 18:05:16.910 ,0,1,0.,4.8,15.,4.8,13.,4.8,5.,4.8
1979-07-15 18:05:21.710 ,0,1,0.,4.8,9.,4.8,4.,4.8,3.,4.8
1979-07-15 18:05:26.510 ,0,1,0.,4.8,2.,4.8,2.,4.8,4.,4.8
1979-07-15 18:05:31.310 ,0,1,0.,4.8,9.,4.8,2.,4.8,2.,4.8
1979-07-15 18:06:00.110 ,0,0,0.,4.8,15.,4.8,5.,4.8,2.,4.8
1979-07-15 18:06:04.910 ,0,0,0.,4.8,16.,4.8,2.,4.8,4.,4.8
1979-07-15 18:06:09.710 ,0,0,0.,4.8,8.,4.8,1.,4.8,3.,4.8
1979-07-15 18:06:14.510 ,0,0,0.,4.8,4.,4.8,0.,4.8,0.,4.8
1979-07-15 18:06:19.310 ,0,0,0.,4.8,0.,4.8,0.,4.8,1.,4.8
1979-07-15 18:06:24.110 ,5,0,0.,4.8,4.,4.8,0.,4.8,3.,4.8
1979-07-15 18:06:28.910 ,5,0,0.,4.8,7.,4.8,5.,4.8,5.,4.8
1979-07-15 18:06:33.710 ,5,0,0.,4.8,20.,4.8,9.,4.8,4.,4.8
1979-07-15 18:06:38.510 ,5,0,0.,4.8,29.,4.8,2.,4.8,2.,4.8
1979-07-15 18:06:43.310 ,5,0,0.,4.8,21.,4.8,5.,4.8,7.,4.8
1979-07-15 18:06:48.110 ,5,0,0.,4.8,23.,4.8,4.,4.8,3.,4.8
1979-07-15 18:06:52.910 ,5,0,0.,4.8,35.,4.8,6.,4.8,2.,4.8
1979-07-15 18:06:57.710 ,5,0,0.,4.8,24.,4.8,3.,4.8,3.,4.8
1979-07-15 18:07:02.510 ,5,0,0.,4.8,22.,4.8,2.,4.8,5.,4.8
1979-07-15 18:07:07.310 ,5,0,0.,4.8,28.,4.8,5.,4.8,5.,4.8
1979-07-15 18:07:12.110 ,4,0,0.,4.8,23.,4.8,1.,4.8,9.,4.8
1979-07-15 18:07:16.910 ,4,0,0.,4.8,26.,4.8,5.,4.8,5.,4.8
1979-07-15 18:07:21.710 ,4,0,0.,4.8,37.,4.8,4.,4.8,3.,4.8
1979-07-15 18:07:26.510 ,4,0,0.,4.8,28.,4.8,3.,4.8,10.,4.8
1979-07-15 18:07:31.310 ,4,0,0.,4.8,35.,4.8,3.,4.8,9.,4.8
1979-07-15 18:07:36.110 ,4,0,0.,4.8,43.,4.8,10.,4.8,4.,4.8
1979-07-15 18:07:40.910 ,4,0,0.,4.8,32.,4.8,8.,4.8,2.,4.8
1979-07-15 18:07:45.710 ,4,0,0.,4.8,38.,4.8,5.,4.8,5.,4.8
1979-07-15 18:07:50.510 ,4,0,0.,4.8,39.,4.8,2.,4.8,5.,4.8
1979-07-15 18:07:55.310 ,4,0,0.,4.8,27.,4.8,4.,4.8,1.,4.8
1979-07-15 18:08:00.110 ,3,0,0.,4.8,27.,4.8,4.,4.8,7.,4.8
1979-07-15 18:08:04.910 ,3,0,0.,4.8,35.,4.8,8.,4.8,4.,4.8
1979-07-15 18:08:09.710 ,3,0,0.,4.8,61.,4.8,9.,4.8,11.,4.8
1979-07-15 18:08:14.510 ,3,0,0.,4.8,46.,4.8,10.,4.8,2.,4.8
1979-07-15 18:08:19.310 ,3,0,0.,4.8,35.,4.8,4.,4.8,3.,4.8
1979-07-15 18:08:24.110 ,3,0,0.,4.8,54.,4.8,6.,4.8,6.,4.8
1979-07-15 18:08:28.910 ,3,0,0.,4.8,63.,4.8,12.,4.8,5.,4.8
1979-07-15 18:08:33.710 ,3,0,0.,4.8,40.,4.8,4.,4.8,5.,4.8
1979-07-15 18:08:38.510 ,3,0,0.,4.8,50.,4.8,6.,4.8,8.,4.8
1979-07-15 18:08:43.310 ,3,0,0.,4.8,54.,4.8,11.,4.8,4.,4.8
1979-07-15 18:08:48.110 ,2,0,0.,4.8,66.,4.8,7.,4.8,10.,4.8
1979-07-15 18:08:52.910 ,2,0,0.,4.8,39.,4.8,7.,4.8,7.,4.8
1979-07-15 18:08:57.710 ,2,0,1.,4.8,53.,4.8,23.,4.8,12.,4.8
1979-07-15 18:09:02.510 ,2,0,0.,4.8,40.,4.8,12.,4.8,13.,4.8
1979-07-15 18:09:07.310 ,2,0,0.,4.8,64.,4.8,20.,4.8,8.,4.8
1979-07-15 18:09:12.110 ,2,0,0.,4.8,53.,4.8,21.,4.8,10.,4.8
1979-07-15 18:09:16.910 ,2,0,1.,4.8,64.,4.8,17.,4.8,12.,4.8
1979-07-15 18:09:21.710 ,2,0,1.,4.8,70.,4.8,22.,4.8,14.,4.8
1979-07-15 18:09:26.510 ,2,0,0.,4.8,62.,4.8,16.,4.8,6.,4.8
1979-07-15 18:09:31.310 ,2,0,0.,4.8,63.,4.8,28.,4.8,6.,4.8
1979-07-15 18:09:36.110 ,1,0,0.,4.8,51.,4.8,28.,4.8,11.,4.8
1979-07-15 18:09:40.910 ,1,0,0.,4.8,64.,4.8,25.,4.8,6.,4.8
1979-07-15 18:09:45.710 ,1,0,0.,4.8,34.,4.8,6.,4.8,7.,4.8
1979-07-15 18:09:50.510 ,1,0,0.,4.8,33.,4.8,5.,4.8,7.,4.8
1979-07-15 18:09:55.310 ,1,0,0.,4.8,30.,4.8,5.,4.8,5.,4.8
1979-07-15 18:10:00.110 ,0,0,0.,4.8,18.,4.8,6.,4.8,2.,4.8
1979-07-15 18:10:04.910 ,0,0,0.,4.8,14.,4.8,6.,4.8,3.,4.8
1979-07-15 18:10:09.710 ,0,0,0.,4.8,20.,4.8,6.,4.8,5.,4.8
1979-07-15 18:10:14.510 ,0,0,0.,4.8,17.,4.8,2.,4.8,2.,4.8
1979-07-15 18:10:19.310 ,0,0,0.,4.8,38.,4.8,5.,4.8,1.,4.8
1979-07-15 18:10:55.910 ,0,0,,0,,0,,0,,0
1979-07-15 18:11:00.710 ,0,0,,0,,0,,0,,0
1979-07-15 18:11:05.510 ,0,0,0.,4.8,29.,4.8,2.,4.8,4.,4.8
1979-07-15 18:11:10.310 ,0,0,0.,4.8,15.,4.8,1.,4.8,3.,4.8
1979-07-15 18:11:15.110 ,0,0,0.,4.8,19.,4.8,4.,4.8,2.,4.8
1979-07-15 18:11:12.110 ,0,0,0.,4.8,21.,4.8,3.,4.8,2.,4.8
1979-07-15 18:11:16.910 ,0,0,0.,4.8,14.,4.8,10.,4.8,5.,4.8
1979-07-15 18:11:21.710 ,0,0,0.,4.8,20.,4.8,2.,4.8,4.,4.8
1979-07-15 18:11:26.510 ,0,0,0.,4.8,23.,4.8,6.,4.8,2.,4.8
1979-07-15 18:11:31.310 ,0,0,0.,4.8,10.,4.8,6.,4.8,7.,4.8
1979-07-15 18:11:36.110 ,0,0,0.,4.8,15.,4.8,5.,4.8,5.,4.8
1979-07-15 18:11:40.910 ,0,0,0.,4.8,18.,4.8,8.,4.8,4.,4.8
1979-07-15 18:11:45.710 ,0,0,0.,4.8,20.,4.8,1.,4.8,5.,4.8
1979-07-15 18:11:50.510 ,0,0,0.,4.8,23.,4.8,4.,4.8,6.,4.8
1979-07-15 18:11:55.310 ,0,0,0.,4.8,24.,4.8,2.,4.8,2.,4.8
1979-07-15 18:12:00.110 ,1,0,0.,4.8,18.,4.8,7.,4.8,5.,4.8
1979-07-15 18:12:04.910 ,1,0,0.,4.8,16.,4.8,6.,4.8,6.,4.8
1979-07-15 18:12:09.710 ,1,0,0.,4.8,37.,4.8,6.,4.8,8.,4.8
1979-07-15 18:12:14.510 ,1,0,0.,4.8,32.,4.8,6.,4.8,6.,4.8
1979-07-15 18:12:19.310 ,1,0,0.,4.8,34.,4.8,8.,4.8,9.,4.8
1979-07-15 18:12:24.110 ,1,0,0.,4.8,35.,4.8,6.,4.8,7.,4.8
1979-07-15 18:12:28.910 ,1,0,0.,4.8,36.,4.8,4.,4.8,4.,4.8
1979-07-15 18:12:33.710 ,1,0,0.,4.8,36.,4.8,6.,4.8,6.,4.8
1979-07-15 18:12:38.510 ,1,0,0.,4.8,32.,4.8,6.,4.8,2.,4.8
1979-07-15 18:12:43.310 ,1,0,0.,4.8,38.,4.8,6.,4.8,2.,4.8
1979-07-15 18:12:48.110 ,2,0,0.,4.8,25.,4.8,7.,4.8,5.,4.8
1979-07-15 18:12:52.910 ,2,0,0.,4.8,44.,4.8,5.,4.8,2.,4.8
1979-07-15 18:12:57.710 ,2,0,1.,4.8,66.,4.8,21.,4.8,11.,4.8
1979-07-15 18:13:02.510 ,2,0,0.,4.8,70.,4.8,19.,4.8,7.,4.8
1979-07-15 18:13:07.310 ,2,0,1.,4.8,80.,4.8,23.,4.8,11.,4.8
1979-07-15 18:13:12.110 ,2,0,0.,4.8,70.,4.8,21.,4.8,13.,4.8
1979-07-15 18:13:16.910 ,2,0,1.,4.8,59.,4.8,21.,4.8,3.,4.8
1979-07-15 18:13:21.710 ,2,0,0.,4.8,78.,4.8,29.,4.8,10.,4.8
1979-07-15 18:13:26.510 ,2,0,1.,4.8,76.,4.8,21.,4.8,8.,4.8
1979-07-15 18:13:31.310 ,2,0,0.,4.8,66.,4.8,20.,4.8,14.,4.8
1979-07-15 18:13:36.110 ,3,0,1.,4.8,74.,4.8,21.,4.8,8.,4.8
1979-07-15 18:13:40.910 ,3,0,1.,4.8,76.,4.8,26.,4.8,11.,4.8
1979-07-15 18:13:45.710 ,3,0,0.,4.8,54.,4.8,9.,4.8,17.,4.8
1979-07-15 18:13:50.510 ,3,0,0.,4.8,33.,4.8,6.,4.8,8.,4.8
1979-07-15 18:13:55.310 ,3,0,0.,4.8,49.,4.8,9.,4.8,4.,4.8
1979-07-15 18:14:00.110 ,3,0,0.,4.8,35.,4.8,12.,4.8,10.,4.8
1979-07-15 18:14:04.910 ,3,0,0.,4.8,47.,4.8,11.,4.8,7.,4.8
1979-07-15 18:14:09.710 ,3,0,0.,4.8,48.,4.8,19.,4.8,6.,4.8
1979-07-15 18:14:14.510 ,3,0,0.,4.8,50.,4.8,12.,4.8,9.,4.8
1979-07-15 18:14:19.310 ,3,0,0.,4.8,38.,4.8,14.,4.8,11.,4.8
1979-07-15 18:14:24.110 ,4,0,0.,4.8,51.,4.8,9.,4.8,8.,4.8
1979-07-15 18:14:28.910 ,4,0,0.,4.8,34.,4.8,9.,4.8,4.,4.8
1979-07-15 18:14:33.710 ,4,0,0.,4.8,27.,4.8,5.,4.8,6.,4.8
1979-07-15 18:14:38.510 ,4,0,0.,4.8,38.,4.8,6.,4.8,4.,4.8
1979-07-15 18:14:43.310 ,4,0,0.,4.8,36.,4.8,7.,4.8,2.,4.8
1979-07-15 18:14:48.110 ,4,0,0.,4.8,31.,4.8,3.,4.8,3.,4.8
1979-07-15 18:14:52.910 ,4,0,0.,4.8,44.,4.8,5.,4.8,6.,4.8
1979-07-15 18:14:57.710 ,4,0,0.,4.8,28.,4.8,5.,4.8,4.,4.8
1979-07-15 18:15:02.510 ,4,0,0.,4.8,32.,4.8,5.,4.8,2.,4.8
1979-07-15 18:15:07.310 ,4,0,0.,4.8,26.,4.8,5.,4.8,1.,4.8
1979-07-15 18:15:12.110 ,5,0,0.,4.8,26.,4.8,5.,4.8,1.,4.8
1979-07-15 18:15:16.910 ,5,0,0.,4.8,34.,4.8,2.,4.8,3.,4.8
1979-07-15 18:15:21.710 ,5,0,0.,4.8,29.,4.8,4.,4.8,6.,4.8
1979-07-15 18:15:26.510 ,5,0,0.,4.8,23.,4.8,3.,4.8,4.,4.8
1979-07-15 18:15:31.310 ,5,0,0.,4.8,28.,4.8,7.,4.8,3.,4.8
1979-07-15 18:15:36.110 ,5,0,0.,4.8,33.,4.8,2.,4.8,3.,4.8
1979-07-15 18:15:40.910 ,5,0,0.,4.8,21.,4.8,5.,4.8,5.,4.8
1979-07-15 18:15:45.710 ,5,0,0.,4.8,22.,4.8,4.,4.8,6.,4.8
1979-07-15 18:15:50.510 ,5,0,0.,4.8,23.,4.8,4.,4.8,7.,4.8
1979-07-15 18:15:55.310 ,5,0,0.,4.8,27.,4.8,5.,4.8,8.,4.8
1979-07-15 18:16:00.110 ,6,0,0.,4.8,30.,4.8,2.,4.8,10.,4.8
1979-07-15 18:16:04.910 ,6,0,0.,4.8,23.,4.8,5.,4.8,9.,4.8
1979-07-15 18:16:09.710 ,6,0,0.,4.8,20.,4.8,5.,4.8,6.,4.8
1979-07-15 18:16:14.510 ,6,0,0.,4.8,24.,4.8,5.,4.8,5.,4.8
1979-07-15 18:16:19.310 ,6,0,0.,4.8,15.,4.8,6.,4.8,5.,4.8
1979-07-15 18:16:48.110 ,7,0,0.,4.8,22.,4.8,1.,4.8,6.,4.8
1979-07-15 18:16:52.910 ,7,0,0.,4.8,16.,4.8,8.,4.8,4.,4.8
1979-07-15 18:16:57.710 ,7,0,0.,4.8,1.,4.8,1.,4.8,0.,4.8
1979-07-15 18:17:02.510 ,7,0,0.,4.8,1.,4.8,0.,4.8,0.,4.8
1979-07-15 18:17:07.310 ,7,0,0.,4.8,3.,4.8,0.,4.8,0.,4.8
1979-07-15 18:17:12.110 ,7,0,0.,4.8,0.,4.8,0.,4.8,0.,4.8
1979-07-15 18:17:16.910 ,7,0,0.,4.8,1.,4.8,0.,4.8,0.,4.8
1979-07-15 18:17:21.710 ,7,0,0.,4.8,2.,4.8,0.,4.8,0.,4.8
1979-07-15 18:17:26.510 ,7,0,0.,4.8,0.,4.8,0.,4.8,0.,4.8
1979-07-15 18:17:31.310 ,7,0,0.,4.8,1.,4.8,0.,4.8,0.,4.8
1979-07-15 18:17:36.110 ,7,0,0.,4.8,0.,4.8,0.,4.8,0.,4.8
1979-07-15 18:17:40.910 ,7,0,0.,4.8,0.,4.8,0.,4.8,0.,4.8
1979-07-15 18:17:45.710 ,7,0,0.,4.8,0.,4.8,0.,4.8,0.,4.8
1979-07-15 18:17:50.510 ,7,0,0.,4.8,1.,4.8,0.,4.8,1.,4.8
1979-07-15 18:17:55.310 ,7,0,0.,4.8,0.,4.8,0.,4.8,0.,4.8
1979-07-15 18:18:00.110 ,7,0,0.,4.8,1.,4.8,0.,4.8,0.,4.8
1979-07-15 18:18:04.910 ,7,0,0.,4.8,0.,4.8,0.,4.8,0.,4.8
1979-07-15 18:18:09.710 ,7,0,0.,4.8,1.,4.8,0.,4.8,0.,4.8
1979-07-15 18:18:14.510 ,7,0,0.,4.8,1.,4.8,1.,4.8,0.,4.8
1979-07-15 18:18:19.310 ,7,0,0.,4.8,1.,4.8,0.,4.8,1.,4.8
1979-07-15 18:18:24.110 ,6,0,0.,4.8,0.,4.8,0.,4.8,0.,4.8
1979-07-15 18:18:28.910 ,6,0,0.,4.8,0.,4.8,0.,4.8,0.,4.8
1979-07-15 18:18:33.710 ,6,0,0.,4.8,25.,4.8,3.,4.8,4.,4.8
1979-07-15 18:18:38.510 ,6,0,0.,4.8,20.,4.8,3.,4.8,5.,4.8
1979-07-15 18:18:43.310 ,6,0,0.,4.8,33.,4.8,3.,4.8,2.,4.8
1979-07-15 18:18:48.110 ,6,0,0.,4.8,17.,4.8,7.,4.8,2.,4.8
1979-07-15 18:18:52.910 ,6,0,0.,4.8,24.,4.8,8.,4.8,5.,4.8
1979-07-15 18:18:57.710 ,6,0,0.,4.8,26.,4.8,4.,4.8,7.,4.8
1979-07-15 18:19:02.510 ,6,0,0.,4.8,20.,4.8,7.,4.8,5.,4.8
1979-07-15 18:19:07.310 ,6,0,0.,4.8,26.,4.8,5.,4.8,2.,4.8
1979-07-15 18:19:12.110 ,5,0,0.,4.8,34.,4.8,4.,4.8,3.,4.8
1979-07-15 18:19:16.910 ,5,0,0.,4.8,20.,4.8,6.,4.8,7.,4.8
1979-07-15 18:19:21.710 ,5,0,0.,4.8,33.,4.8,5.,4.8,5.,4.8
1979-07-15 18:19:26.510 ,5,0,0.,4.8,27.,4.8,6.,4.8,4.,4.8
1979-07-15 18:19:31.310 ,5,0,0.,4.8,30.,4.8,1.,4.8,2.,4.8
1979-07-15 18:19:36.110 ,5,0,0.,4.8,14.,4.8,1.,4.8,3.,4.8
1979-07-15 18:19:40.910 ,5,0,0.,4.8,28.,4.8,4.,4.8,5.,4.8
1979-07-15 18:19:45.710 ,5,0,0.,4.8,31.,4.8,6.,4.8,2.,4.8
1979-07-15 18:19:50.510 ,5,0,0.,4.8,32.,4.8,1.,4.8,2.,4.8
1979-07-15 18:19:55.310 ,5,0,0.,4.8,27.,4.8,4.,4.8,4.,4.8
1979-07-15 18:20:00.110 ,4,0,0.,4.8,14.,4.8,6.,4.8,6.,4.8
1979-07-15 18:20:04.910 ,4,0,0.,4.8,26.,4.8,6.,4.8,4.,4.8
1979-07-15 18:20:09.710 ,4,0,0.,4.8,35.,4.8,3.,4.8,6.,4.8
1979-07-15 18:20:14.510 ,4,0,0.,4.8,35.,4.8,5.,4.8,2.,4.8
1979-07-15 18:20:19.310 ,4,0,0.,4.8,40.,4.8,7.,4.8,0.,4.8
1979-07-15 18:20:24.110 ,4,0,0.,4.8,27.,4.8,1.,4.8,3.,4.8
1979-07-15 18:20:28.910 ,4,0,0.,4.8,24.,4.8,4.,4.8,3.,4.8
1979-07-15 18:20:33.710 ,4,0,0.,4.8,30.,4.8,0.,4.8,3.,4.8
1979-07-15 18:20:38.510 ,4,0,0.,4.8,31.,4.8,5.,4.8,5.,4.8
1979-07-15 18:20:43.310 ,4,0,0.,4.8,27.,4.8,4.,4.8,4.,4.8
1979-07-15 18:20:48.110 ,3,0,0.,4.8,29.,4.8,5.,4.8,4.,4.8
1979-07-15 18:20:52.910 ,3,0,0.,4.8,27.,4.8,3.,4.8,6.,4.8
1979-07-15 18:20:57.710 ,3,0,0.,4.8,23.,4.8,5.,4.8,4.,4.8
1979-07-15 18:21:02.510 ,3,0,0.,4.8,24.,4.8,4.,4.8,6.,4.8
1979-07-15 18:21:07.310 ,3,0,0.,4.8,20.,4.8,1.,4.8,4.,4.8
1979-07-15 18:21:12.110 ,3,0,0.,4.8,31.,4.8,5.,4.8,5.,4.8
1979-07-15 18:21:16.910 ,3,0,0.,4.8,25.,4.8,2.,4.8,6.,4.8
1979-07-15 18:21:21.710 ,3,0,0.,4.8,30.,4.8,3.,4.8,4.,4.8
1979-07-15 18:21:26.510 ,3,0,0.,4.8,24.,4.8,2.,4.8,7.,4.8
1979-07-15 18:21:31.310 ,3,0,0.,4.8,21.,4.8,2.,4.8,2.,4.8
1979-07-15 18:21:36.110 ,2,0,0.,4.8,21.,4.8,6.,4.8,3.,4.8
1979-07-15 18:21:40.910 ,2,0,0.,4.8,15.,4.8,0.,4.8,6.,4.8
1979-07-15 18:21:45.710 ,2,0,0.,4.8,18.,4.8,3.,4.8,5.,4.8
1979-07-15 18:21:50.510 ,2,0,0.,4.8,15.,4.8,6.,4.8,10.,4.8
1979-07-15 18:21:55.310 ,2,0,0.,4.8,19.,4.8,1.,4.8,5.,4.8
1979-07-15 18:22:00.110 ,2,0,0.,4.8,20.,4.8,8.,4.8,7.,4.8
1979-07-15 18:22:04.910 ,2,0,0.,4.8,15.,4.8,6.,4.8,3.,4.8
1979-07-15 18:22:09.710 ,2,0,0.,4.8,16.,4.8,3.,4.8,6.,4.8
1979-07-15 18:22:14.510 ,2,0,0.,4.8,21.,4.8,7.,4.8,4.,4.8
1979-07-15 18:22:19.310 ,2,0,0.,4.8,13.,4.8,7.,4.8,5.,4.8
1979-07-15 18:22:24.110 ,1,0,0.,4.8,21.,4.8,5.,4.8,9.,4.8
1979-07-15 18:22:28.910 ,1,0,0.,4.8,28.,4.8,4.,4.8,7.,4.8
1979-07-15 18:22:33.710 ,1,0,0.,4.8,20.,4.8,1.,4.8,3.,4.8
1979-07-15 18:22:38.510 ,1,0,0.,4.8,15.,4.8,5.,4.8,3.,4.8
1979-07-15 18:22:43.310 ,1,0,0.,4.8,16.,4.8,7.,4.8,6.,4.8
1979-07-15 18:22:48.110 ,1,0,0.,4.8,29.,4.8,5.,4.8,6.,4.8
1979-07-15 18:22:52.910 ,1,0,0.,4.8,26.,4.8,4.,4.8,6.,4.8
1979-07-15 18:22:57.710 ,1,0,0.,4.8,18.,4.8,6.,4.8,7.,4.8
1979-07-15 18:23:02.510 ,1,0,0.,4.8,16.,4.8,8.,4.8,4.,4.8
1979-07-15 18:23:07.310 ,1,0,0.,4.8,20.,4.8,8.,4.8,4.,4.8
1979-07-15 18:24:00.110 ,0,0,0.,4.8,4.,4.8,4.,4.8,0.,4.8
1979-07-15 18:24:04.910 ,0,0,0.,4.8,9.,4.8,3.,4.8,3.,4.8
1979-07-15 18:24:09.710 ,0,0,0.,4.8,4.,4.8,1.,4.8,4.,4.8
1979-07-15 18:24:14.510 ,0,0,0.,4.8,11.,4.8,5.,4.8,4.,4.8
1979-07-15 18:24:19.310 ,0,0,0.,4.8,10.,4.8,1.,4.8,0.,4.8
1979-07-15 18:24:24.110 ,0,0,0.,4.8,7.,4.8,4.,4.8,2.,4.8
1979-07-15 18:24:28.910 ,0,0,0.,4.8,8.,4.8,3.,4.8,6.,4.8
1979-07-15 18:24:33.710 ,0,0,0.,4.8,7.,4.8,5.,4.8,4.,4.8
1979-07-15 18:24:38.510 ,0,0,0.,4.8,10.,4.8,2.,4.8,3.,4.8
1979-07-15 18:24:43.310 ,0,0,0.,4.8,7.,4.8,2.,4.8,5.,4.8
1979-07-15 18:24:48.110 ,1,0,0.,4.8,10.,4.8,4.,4.8,2.,4.8
1979-07-15 18:24:52.910 ,1,0,0.,4.8,12.,4.8,1.,4.8,3.,4.8
1979-07-15 18:24:57.710 ,1,0,0.,4.8,16.,4.8,4.,4.8,6.,4.8
1979-07-15 18:25:02.510 ,1,0,0.,4.8,19.,4.8,2.,4.8,4.,4.8
1979-07-15 18:25:07.310 ,1,0,0.,4.8,20.,4.8,5.,4.8,2.,4.8
1979-07-15 18:25:12.110 ,1,0,0.,4.8,14.,4.8,0.,4.8,4.,4.8
1979-07-15 18:25:16.910 ,1,0,0.,4.8,18.,4.8,0.,4.8,2.,4.8
1979-07-15 18:25:21.710 ,1,0,0.,4.8,11.,4.8,5.,4.8,3.,4.8
1979-07-15 18:25:26.510 ,1,0,0.,4.8,14.,4.8,5.,4.8,1.,4.8
1979-07-15 18:25:31.310 ,1,0,0.,4.8,15.,4.8,2.,4.8,2.,4.8
1979-07-15 18:25:36.110 ,2,0,0.,4.8,24.,4.8,4.,4.8,2.,4.8
1979-07-15 18:25:40.910 ,2,0,0.,4.8,22.,4.8,7.,4.8,2.,4.8
1979-07-15 18:25:45.710 ,2,0,0.,4.8,21.,4.8,1.,4.8,2.,4.8
1979-07-15 18:25:50.510 ,2,0,0.,4.8,13.,4.8,0.,4.8,3.,4.8
1979-07-15 18:25:55.310 ,2,0,0.,4.8,13.,4.8,4.,4.8,5.,4.8
1979-07-15 18:26:00.110 ,2,0,0.,4.8,21.,4.8,2.,4.8,3.,4.8
1979-07-15 18:26:04.910 ,2,0,0.,4.8,17.,4.8,5.,4.8,2.,4.8
1979-07-15 18:26:09.710 ,2,0,0.,4.8,15.,4.8,6.,4.8,2.,4.8
1979-07-15 18:26:14.510 ,2,0,0.,4.8,19.,4.8,0.,4.8,2.,4.8
1979-07-15 18:26:19.310 ,2,0,0.,4.8,17.,4.8,3.,4.8,7.,4.8
1979-07-15 18:26:24.110 ,3,0,0.,4.8,25.,4.8,4.,4.8,4.,4.8
1979-07-15 18:26:28.910 ,3,0,0.,4.8,18.,4.8,3.,4.8,1.,4.8
1979-07-15 18:26:33.710 ,3,0,0.,4.8,36.,4.8,1.,4.8,4.,4.8
1979-07-15 18:26:38.510 ,3,0,0.,4.8,34.,4.8,6.,4.8,2.,4.8
1979-07-15 18:26:43.310 ,3,0,0.,4.8,33.,4.8,4.,4.8,0.,4.8
1979-07-15 18:26:48.110 ,3,0,0.,4.8,29.,4.8,2.,4.8,3.,4.8
1979-07-15 18:26:52.910 ,3,0,0.,4.8,24.,4.8,4.,4.8,5.,4.8
1979-07-15 18:26:57.710 ,3,0,0.,4.8,25.,4.8,1.,4.8,3.,4.8
1979-07-15 18:27:02.510 ,3,0,0.,4.8,19.,4.8,0.,4.8,5.,4.8
1979-07-15 18:27:07.310 ,3,0,0.,4.8,12.,4.8,4.,4.8,4.,4.8
1979-07-15 18:27:12.110 ,4,0,0.,4.8,13.,4.8,1.,4.8,3.,4.8
1979-07-15 18:27:16.910 ,4,0,0.,4.8,13.,4.8,3.,4.8,0.,4.8
1979-07-15 18:27:21.710 ,4,0,0.,4.8,5.,4.8,3.,4.8,5.,4.8
1979-07-15 18:27:26.510 ,4,0,0.,4.8,11.,4.8,1.,4.8,3.,4.8
1979-07-15 18:27:31.310 ,4,0,0.,4.8,7.,4.8,0.,4.8,2.,4.8
1979-07-15 18:27:36.110 ,4,0,0.,4.8,10.,4.8,4.,4.8,0.,4.8
1979-07-15 18:27:40.910 ,4,0,0.,4.8,7.,4.8,3.,4.8,5.,4.8
1979-07-15 18:27:45.710 ,4,0,0.,4.8,9.,4.8,3.,4.8,3.,4.8
1979-07-15 18:27:50.510 ,4,0,0.,4.8,7.,4.8,4.,4.8,1.,4.8
1979-07-15 18:27:55.310 ,4,0,0.,4.8,9.,4.8,3.,4.8,1.,4.8
1979-07-15 18:28:00.110 ,5,0,0.,4.8,9.,4.8,2.,4.8,5.,4.8
1979-07-15 18:28:04.910 ,5,0,0.,4.8,12.,4.8,3.,4.8,2.,4.8
1979-07-15 18:28:09.710 ,5,0,0.,4.8,11.,4.8,2.,4.8,2.,4.8
1979-07-15 18:28:14.510 ,5,0,0.,4.8,6.,4.8,2.,4.8,2.,4.8
1979-07-15 18:28:19.310 ,5,0,0.,4.8,5.,4.8,0.,4.8,3.,4.8
1979-07-15 18:28:24.110 ,5,0,0.,4.8,11.,4.8,4.,4.8,2.,4.8
1979-07-15 18:28:28.910 ,5,0,0.,4.8,5.,4.8,0.,4.8,1.,4.8
1979-07-15 18:28:33.710 ,5,0,0.,4.8,9.,4.8,2.,4.8,5.,4.8
1979-07-15 18:28:38.510 ,5,0,0.,4.8,7.,4.8,6.,4.8,1.,4.8
1979-07-15 18:28:43.310 ,5,0,0.,4.8,5.,4.8,0.,4.8,3.,4.8
1979-07-15 18:28:48.110 ,6,0,0.,4.8,4.,4.8,0.,4.8,4.,4.8
1979-07-15 18:28:52.910 ,6,0,0.,4.8,9.,4.8,2.,4.8,2.,4.8
1979-07-15 18:28:57.710 ,6,0,0.,4.8,4.,4.8,4.,4.8,0.,4.8
1979-07-15 18:29:02.510 ,6,0,0.,4.8,8.,4.8,2.,4.8,1.,4.8
1979-07-15 18:29:07.310 ,6,0,0.,4.8,2.,4.8,3.,4.8,0.,4.8
1979-07-15 18:29:12.110 ,6,0,0.,4.8,6.,4.8,3.,4.8,1.,4.8
1979-07-15 18:29:16.910 ,6,0,0.,4.8,5.,4.8,2.,4.8,5.,4.8
1979-07-15 18:29:21.710 ,6,0,0.,4.8,9.,4.8,4.,4.8,1.,4.8
1979-07-15 18:29:26.510 ,6,0,0.,4.8,3.,4.8,3.,4.8,0.,4.8
1979-07-15 18:29:31.310 ,6,0,0.,4.8,5.,4.8,3.,4.8,3.,4.8
1979-07-15 18:29:36.110 ,7,0,0.,4.8,6.,4.8,3.,4.8,3.,4.8
1979-07-15 18:29:40.910 ,7,0,0.,4.8,6.,4.8,0.,4.8,3.,4.8
1979-07-15 18:29:45.710 ,7,0,0.,4.8,1.,4.8,0.,4.8,1.,4.8
1979-07-15 18:29:50.510 ,7,0,0.,4.8,0.,4.8,0.,4.8,0.,4.8
1979-07-15 18:29:55.310 ,7,0,0.,4.8,0.,4.8,0.,4.8,0.,4.8
1979-07-15 18:30:00.110 ,7,0,0.,4.8,1.,4.8,0.,4.8,1.,4.8
1979-07-15 18:30:04.910 ,7,0,0.,4.8,0.,4.8,0.,4.8,0.,4.8
1979-07-15 18:30:09.710 ,7,0,0.,4.8,1.,4.8,0.,4.8,0.,4.8
1979-07-15 18:30:14.510 ,7,0,0.,4.8,1.,4.8,0.,4.8,0.,4.8
1979-07-15 18:30:19.310 ,7,0,0.,4.8,2.,4.8,0.,4.8,0.,4.8
1979-07-15 18:30:24.110 ,7,0,0.,4.8,1.,4.8,0.,4.8,0.,4.8
1979-07-15 18:30:28.910 ,7,0,0.,4.8,0.,4.8,0.,4.8,0.,4.8
1979-07-15 18:30:33.710 ,7,0,0.,4.8,2.,4.8,2.,4.8,0.,4.8
1979-07-15 18:30:38.510 ,7,0,0.,4.8,0.,4.8,0.,4.8,0.,4.8
1979-07-15 18:30:43.310 ,7,0,0.,4.8,2.,4.8,0.,4.8,0.,4.8
1979-07-15 18:30:48.110 ,7,0,0.,4.8,1.,4.8,0.,4.8,0.,4.8
1979-07-15 18:30:52.910 ,7,0,0.,4.8,2.,4.8,0.,4.8,0.,4.8
1979-07-15 18:30:57.710 ,7,0,0.,4.8,0.,4.8,1.,4.8,0.,4.8
1979-07-15 18:31:02.510 ,7,0,0.,4.8,0.,4.8,0.,4.8,0.,4.8
1979-07-15 18:31:07.310 ,7,0,0.,4.8,1.,4.8,0.,4.8,0.,4.8
1979-07-15 18:31:12.110 ,6,0,0.,4.8,0.,4.8,0.,4.8,0.,4.8
1979-07-15 18:31:16.910 ,6,0,0.,4.8,0.,4.8,0.,4.8,0.,4.8
1979-07-15 18:31:21.710 ,6,0,0.,4.8,9.,4.8,2.,4.8,3.,4.8
1979-07-15 18:31:26.510 ,6,0,0.,4.8,2.,4.8,2.,4.8,1.,4.8
1979-07-15 18:31:31.310 ,6,0,0.,4.8,5.,4.8,1.,4.8,3.,4.8
1979-07-15 18:31:36.110 ,6,0,0.,4.8,9.,4.8,3.,4.8,1.,4.8
1979-07-15 18:31:40.910 ,6,0,0.,4.8,3.,4.8,4.,4.8,1.,4.8
1979-07-15 18:31:45.710 ,6,0,0.,4.8,5.,4.8,1.,4.8,2.,4.8
1979-07-15 18:31:50.510 ,6,0,0.,4.8,9.,4.8,1.,4.8,2.,4.8
1979-07-15 18:31:55.310 ,6,0,0.,4.8,8.,4.8,1.,4.8,1.,4.8
1979-07-15 18:32:00.110 ,5,0,0.,4.8,7.,4.8,2.,4.8,1.,4.8
1979-07-15 18:32:04.910 ,5,0,0.,4.8,1.,4.8,1.,4.8,3.,4.8
1979-07-15 18:32:09.710 ,5,0,0.,4.8,7.,4.8,4.,4.8,6.,4.8
1979-07-15 18:32:14.510 ,5,0,0.,4.8,9.,4.8,5.,4.8,2.,4.8
1979-07-15 18:32:19.310 ,5,0,0.,4.8,7.,4.8,2.,4.8,2.,4.8
1979-07-15 18:32:24.110 ,5,0,0.,4.8,4.,4.8,1.,4.8,1.,4.8
1979-07-15 18:32:28.910 ,5,0,0.,4.8,5.,4.8,2.,4.8,4.,4.8
1979-07-15 18:32:33.710 ,5,0,0.,4.8,2.,4.8,0.,4.8,1.,4.8
1979-07-15 18:32:38.510 ,5,0,0.,4.8,5.,4.8,2.,4.8,2.,4.8
1979-07-15 18:32:43.310 ,5,0,0.,4.8,7.,4.8,2.,4.8,5.,4.8
1979-07-15 18:32:48.110 ,4,0,0.,4.8,9.,4.8,3.,4.8,2.,4.8
1979-07-15 18:32:52.910 ,4,0,0.,4.8,6.,4.8,3.,4.8,1.,4.8
1979-07-15 18:32:57.710 ,4,0,0.,4.8,11.,4.8,3.,4.8,3.,4.8
1979-07-15 18:33:02.510 ,4,0,0.,4.8,7.,4.8,1.,4.8,1.,4.8
1979-07-15 18:33:07.310 ,4,0,0.,4.8,9.,4.8,3.,4.8,1.,4.8
1979-07-15 18:33:12.110 ,4,0,0.,4.8,3.,4.8,1.,4.8,1.,4.8
1979-07-15 18:33:16.910 ,4,0,0.,4.8,6.,4.8,4.,4.8,3.,4.8
1979-07-15 18:33:21.710 ,4,0,0.,4.8,8.,4.8,2.,4.8,4.,4.8
1979-07-15 18:33:26.510 ,4,0,0.,4.8,8.,4.8,3.,4.8,2.,4.8
1979-07-15 18:33:31.310 ,4,0,0.,4.8,5.,4.8,6.,4.8,3.,4.8
1979-07-15 18:33:36.110 ,3,0,0.,4.8,10.,4.8,4.,4.8,2.,4.8
1979-07-15 18:33:40.910 ,3,0,0.,4.8,5.,4.8,0.,4.8,7.,4.8
1979-07-15 18:33:45.710 ,3,0,0.,4.8,7.,4.8,4.,4.8,4.,4.8
1979-07-15 18:33:50.510 ,3,0,0.,4.8,13.,4.8,3.,4.8,1.,4.8
1979-07-15 18:33:55.310 ,3,0,0.,4.8,9.,4.8,2.,4.8,3.,4.8
1979-07-15 18:34:00.110 ,3,0,0.,4.8,13.,4.8,4.,4.8,3.,4.8
1979-07-15 18:34:04.910 ,3,0,0.,4.8,12.,4.8,3.,4.8,2.,4.8
1979-07-15 18:34:09.710 ,3,0,0.,4.8,9.,4.8,3.,4.8,3.,4.8
1979-07-15 18:34:14.510 ,3,0,0.,4.8,5.,4.8,2.,4.8,2.,4.8
1979-07-15 18:34:19.310 ,3,0,0.,4.8,12.,4.8,5.,4.8,2.,4.8
1979-07-15 18:34:24.110 ,2,0,0.,4.8,8.,4.8,2.,4.8,0.,4.8
1979-07-15 18:34:28.910 ,2,0,0.,4.8,4.,4.8,4.,4.8,0.,4.8
1979-07-15 18:34:33.710 ,2,0,0.,4.8,7.,4.8,2.,4.8,3.,4.8
1979-07-15 18:34:38.510 ,2,0,0.,4.8,7.,4.8,6.,4.8,4.,4.8
1979-07-15 18:34:43.310 ,2,0,0.,4.8,8.,4.8,2.,4.8,6.,4.8
1979-07-15 18:34:48.110 ,2,0,0.,4.8,5.,4.8,8.,4.8,4.,4.8
1979-07-15 18:34:52.910 ,2,0,0.,4.8,9.,4.8,6.,4.8,1.,4.8